This demonstration page uses our WeatherBlox Daily Observations layout. Learn more.

Left ArrowRight Arrow

Hourly Observations for February 25, 2016

Temp ( °F °C ) Dew Point ( °F °C ) Humidity (%) Winds ( mph kmh ) Pressure ( in mb ) Visibility ( mi km ) Precip ( " mm )
12:14 am 00:14 Cloudy 32 undefined 30 -1 93 93 NW 18 30 29.59 1002 5 8 N/A
12:34 am 00:34 Cloudy 32 undefined 30 -1 93 93 NW 14 22 29.59 1002 10 16 N/A
12:55 am 00:55 Cloudy 32 undefined 28 -2 87 87 NNW 20 31 29.62 1003 10 16 N/A
1:14 am 01:14 Cloudy 32 undefined 28 -2 87 87 NNW 17 28 29.62 1003 10 16 N/A
1:34 am 01:34 Cloudy 32 undefined 28 -2 87 87 NW 16 26 29.62 1003 5 8 N/A
1:55 am 01:55 Cloudy 32 undefined 30 -1 93 93 WNW 12 19 29.65 1004 3 4 N/A
2:14 am 02:14 Cloudy 32 undefined 30 -1 93 93 WNW 16 26 29.65 1004 3 5 N/A
2:34 am 02:34 Cloudy 32 undefined 30 -1 93 93 WNW 18 30 29.65 1004 5 8 N/A
2:55 am 02:55 Cloudy 32 undefined 30 -1 93 93 WNW 24 39 29.65 1004 7 11 N/A
3:14 am 03:14 Cloudy 32 undefined 30 -1 93 93 WNW 25 41 29.65 1004 4 6 N/A
3:34 am 03:34 Cloudy 32 undefined 28 -2 87 87 WNW 18 30 29.68 1005 7 11 N/A
3:55 am 03:55 Cloudy 32 undefined 28 -2 87 87 WNW 21 33 29.68 1005 10 16 N/A
4:14 am 04:14 Cloudy 32 undefined 28 -2 87 87 WNW 20 31 29.68 1005 10 16 N/A
4:34 am 04:34 Cloudy 32 undefined 28 -2 87 87 WNW 18 30 29.68 1005 7 11 N/A
4:55 am 04:55 Cloudy 32 undefined 28 -2 87 87 WNW 22 35 29.71 1006 7 11 N/A
5:14 am 05:14 Cloudy 32 undefined 28 -2 87 87 WNW 23 37 29.71 1006 7 11 N/A
5:34 am 05:34 Cloudy 32 undefined 28 -2 87 87 WNW 21 33 29.71 1006 7 11 N/A
5:55 am 05:55 Cloudy 32 undefined 28 -2 87 87 WNW 22 35 29.71 1006 7 11 N/A
6:14 am 06:14 Cloudy 32 undefined 28 -2 87 87 WNW 21 33 29.77 1008 7 11 N/A
6:34 am 06:34 Cloudy 32 undefined 28 -2 87 87 WNW 18 30 29.77 1008 7 11 N/A
6:55 am 06:55 Cloudy 32 undefined 28 -2 87 87 WNW 22 35 29.77 1008 5 8 N/A
7:14 am 07:14 Cloudy 32 undefined 28 -2 87 87 WNW 22 35 29.80 1009 10 16 N/A
7:34 am 07:34 Cloudy 32 undefined 28 -2 87 87 WNW 23 37 29.80 1009 10 16 N/A
7:55 am 07:55 Cloudy 32 undefined 28 -2 87 87 WNW 20 31 29.83 1010 7 11 N/A
8:14 am 08:14 Cloudy 32 undefined 28 -2 87 87 WNW 16 26 29.83 1010 10 16 N/A
8:35 am 08:35 Cloudy 32 undefined 28 -2 87 87 WNW 21 33 29.83 1010 10 16 N/A
8:54 am 08:54 Cloudy 32 undefined 28 -2 87 87 WNW 21 33 29.85 1011 5 8 N/A
9:14 am 09:14 Cloudy 32 undefined 28 -2 87 87 WNW 20 31 29.85 1011 5 8 N/A
9:35 am 09:35 Cloudy 32 undefined 28 -2 87 87 WNW 17 28 29.88 1012 4 6 N/A
9:54 am 09:54 Cloudy 32 undefined 28 -2 87 87 WNW 18 30 29.88 1012 4 6 N/A
10:14 am 10:14 Cloudy 32 undefined 28 -2 87 87 WNW 20 31 29.88 1012 4 6 N/A
10:35 am 10:35 Cloudy 32 undefined 28 -2 87 87 WNW 18 30 29.88 1012 3 4 N/A
10:54 am 10:54 Cloudy 32 undefined 28 -2 87 87 WNW 20 31 29.91 1013 3 4 N/A
11:14 am 11:14 Cloudy 32 undefined 28 -2 87 87 WNW 16 26 29.94 1014 2 3 N/A
11:35 am 11:35 Cloudy 32 undefined 30 -1 93 93 WNW 17 28 29.94 1014 2 3 N/A
11:54 am 11:54 Cloudy 32 undefined 30 -1 93 93 WNW 17 28 29.94 1014 3 5 N/A
12:14 pm 12:14 Cloudy 32 undefined 28 -2 87 87 NW 14 22 29.94 1014 7 11 N/A
12:35 pm 12:35 Cloudy 34 1 30 -1 87 87 NW 14 22 29.97 1015 10 16 N/A
12:54 pm 12:54 Cloudy 32 undefined 28 -2 87 87 WNW 17 28 29.97 1015 4 6 N/A
1:14 pm 13:14 Cloudy 32 undefined 28 -2 87 87 WNW 17 28 29.97 1015 10 16 N/A
1:35 pm 13:35 Cloudy 32 undefined 28 -2 87 87 WNW 21 33 29.97 1015 10 16 N/A
1:54 pm 13:54 Cloudy 34 1 28 -2 81 81 WNW 18 30 30.00 1016 10 16 N/A
2:14 pm 14:14 Cloudy 32 undefined 28 -2 87 87 WNW 18 30 30.00 1016 5 8 N/A
2:35 pm 14:35 Cloudy 32 undefined 28 -2 87 87 WNW 15 24 30.00 1016 3 5 N/A
2:54 pm 14:54 Cloudy 32 undefined 28 -2 87 87 WNW 14 22 30.03 1017 3 5 N/A
3:14 pm 15:14 Cloudy 32 undefined 28 -2 87 87 NW 15 24 30.03 1017 3 5 N/A
3:35 pm 15:35 Cloudy 32 undefined 28 -2 87 87 WNW 20 31 30.03 1017 3 5 N/A
3:54 pm 15:54 Cloudy 32 undefined 28 -2 87 87 NW 17 28 30.06 1018 3 4 N/A
4:14 pm 16:14 Cloudy 32 undefined 28 -2 87 87 NW 15 24 30.06 1018 4 6 N/A
4:35 pm 16:35 Cloudy 32 undefined 27 -3 80 80 NW 12 19 30.06 1018 10 16 N/A
4:54 pm 16:54 Cloudy 32 undefined 27 -3 80 80 NW 16 26 30.06 1018 10 16 N/A
5:14 pm 17:14 Cloudy 32 undefined 27 -3 80 80 NW 15 24 30.09 1019 10 16 N/A
5:35 pm 17:35 Cloudy 32 undefined 25 -4 75 75 NW 15 24 30.09 1019 10 16 N/A
5:54 pm 17:54 Cloudy 32 undefined 25 -4 75 75 NW 10 17 30.12 1020 10 16 N/A
6:14 pm 18:14 Cloudy 32 undefined 25 -4 75 75 NW 12 19 30.12 1020 10 16 N/A
6:35 pm 18:35 Cloudy 32 undefined 25 -4 75 75 NW 10 17 30.12 1020 10 16 N/A
6:54 pm 18:54 Cloudy 32 undefined 25 -4 75 75 NW 13 20 30.12 1020 10 16 N/A
7:14 pm 19:14 Cloudy 32 undefined 25 -4 75 75 NW 9 15 30.15 1021 10 16 N/A
7:35 pm 19:35 Cloudy 30 -1 25 -4 80 80 NW 8 13 30.15 1021 10 16 N/A
7:54 pm 19:54 Cloudy 30 -1 25 -4 80 80 NW 7 11 30.15 1021 10 16 N/A
8:14 pm 20:14 Cloudy 30 -1 25 -4 80 80 WNW 8 13 30.15 1021 10 16 N/A
8:35 pm 20:35 Cloudy 30 -1 25 -4 80 80 NW 7 11 30.15 1021 10 16 N/A
8:54 pm 20:54 Cloudy 30 -1 25 -4 80 80 NW 6 9 30.15 1021 10 16 N/A
9:14 pm 21:14 Cloudy 30 -1 25 -4 80 80 NNW 6 9 30.18 1022 10 16 N/A
9:35 pm 21:35 Cloudy 30 -1 25 -4 80 80 NNW 12 19 30.18 1022 10 16 N/A
9:54 pm 21:54 Cloudy 30 -1 25 -4 80 80 NNW 12 19 30.18 1022 10 16 N/A
10:14 pm 22:14 Cloudy 30 -1 25 -4 80 80 NNW 10 17 30.18 1022 10 16 N/A
10:34 pm 22:34 Cloudy 30 -1 25 -4 80 80 NW 10 17 30.18 1022 10 16 N/A
10:54 pm 22:54 Cloudy 30 -1 25 -4 80 80 NW 9 15 30.18 1022 10 16 N/A
11:15 pm 23:15 Cloudy 30 -1 25 -4 80 80 NW 9 15 30.18 1022 10 16 N/A
11:34 pm 23:34 Cloudy 30 -1 25 -4 80 80 NW 8 13 30.21 1023 10 16 N/A
11:54 pm 23:54 Cloudy 30 -1 25 -4 80 80 NW 9 15 30.21 1023 10 16 N/A

Powered by AerisWeather